Regional Weather Roundup
Issued by NWS

Home | Current Version | Previous Version | Text Only | Print | Product List | Glossary On
Versions: 1 2 3 4 5 6 7 8 9 10 11 12 13 14 15 16 17 18 19 20 21 22 23 24 25 26 27 28 29 30 31 32 33 34 35 36 37 38 39 40 41 42 43 44 45 46 47 48 49 50
000
ASUS44 KJAN 181410
RWRMS

MISSISSIPPI HOURLY WEATHER ROUNDUP
NATIONAL WEATHER SERVICE JACKSON MS
900 AM CDT FRI AUG 18 2017

NOTE: "FAIR: INDICATES FEW OR NO CLOUDS BELOW 12,000 FEET WITH NO
SIGNIFICANT WEATHER AND/OR OBSTRUCTIONS TO VISIBILITY.

MSZ001>002-007>008-010>013-018>021-025>028-034>036-181500-
NORTHWEST MISSISSIPPI

CITY           SKY/WX    TMP DP  RH WIND       PRES   REMARKS
BATESVILLE     PTSUNNY   76  73  90 CALM      30.05R
CLARKSDALE       N/A     79  79 100 MISG      30.04R
CLEVELAND      PTSUNNY   80  78  95 NW3       30.04S
GREENWOOD      PTSUNNY   78  75  90 SW5       30.05R
GREENVILLE     MOSUNNY   80  73  79 W5        30.04R
OLIVE BRANCH   MOSUNNY  N/A N/A N/A CALM      30.03R
OXFORD           N/A    N/A N/A N/A MISG        N/A
TUNICA           N/A     77  73  88 W3        30.04R
WINONA         CLOUDY    76  75  96 NW5       30.06R
$$

MSZ003>006-009-014>017-022>024-029>033-037>039-181500-
NORTHEAST MISSISSIPPI

CITY           SKY/WX    TMP DP  RH WIND       PRES   REMARKS
COLUMBUS AFB   CLOUDY    78  78 100 CALM      30.04R
STARKVILLE     PTSUNNY   77  73  88 W3        30.06S
TUPELO         PTSUNNY   78  72  81 NW6       30.04R
$$

MSZ040-058-181500-
CENTRAL MISSISSIPPI

CITY           SKY/WX    TMP DP  RH WIND       PRES   REMARKS
JACKSON INTL   SUNNY     82  77  84 VRB5      30.06S HX  90
JACKSON HAWKNS PTSUNNY   81  78  91 W10       30.06S
MADISON        FAIR      81  77  89 W6        30.06R
MERIDIAN KEY   PTSUNNY   83  76  79 CALM      30.06S HX  91
MERIDIAN NAS   MOSUNNY   82  74  76 W7        30.06R
RAYMOND        FAIR      81  79  94 W6        30.06R
VICKSBURG VKS  PTSUNNY   81  79  94 CALM      30.05R
$$

MSZ059>079-181500-
SOUTH MISSISSIPPI

CITY           SKY/WX    TMP DP  RH WIND       PRES   REMARKS
COLUMBIA       FAIR      81 N/A N/A NW6       30.09R
HATTIESBURG    SUNNY     83  79  88 NW8       30.06S HX  94
LAUREL         FAIR      82  80  93 NW6       30.06S HX  93
MCCOMB         PTSUNNY   81  77  88 NW8       30.08R
NATCHEZ        PTSUNNY   82  78  88 W6        30.08R HX  91
PINE BELT      SUNNY     82  77  84 VRB5      30.07S HX  90
$$

MSZ080>082-181500-
COASTAL MISSISSIPPI

CITY           SKY/WX    TMP DP  RH WIND       PRES   REMARKS
BAY ST LOUIS   MOSUNNY   82  79  89 VRB5      30.05S HX  93
BILOXI         SUNNY     85  77  76 NW9       30.04R HX  95
PASCAGOULA     SUNNY     86  77  74 NW5       30.04S HX  97
GULFPORT       SUNNY     85  78  80 NW13      30.04R HX  96
$$

LAZ007>009-015>016-023>026-181500-
NORTHEAST LOUISIANA

CITY           SKY/WX    TMP DP  RH WIND       PRES   REMARKS
BASTROP        FAIR      82  80  95 SW5       30.05S HX  92
TALLULAH/VBURG PTSUNNY   81  77  88 VRB3      30.05S
VIDALIA        CLOUDY   N/A N/A N/A MISG      30.06R
$$



USA.gov is the U.S. government's official web portal to all federal, state and local government web resources and services.